This is the latest recevied weather packets stored in our database for station/object KC8BSD. If no packets are shown the sender has not sent any weather packets the latest 10 day(s).
| Time | Temp. | Humidity | Pressure | Rain* | Wind** | Luminosity | Snow |
|---|---|---|---|---|---|---|---|
| 1778021120 | 12.22° C | 51% | 1008.9 hPa | 0 mm | - | 62 W/m² | - |
| 1778020817 | 12.22° C | 52% | 1009 hPa | 0 mm | - | 67 W/m² | - |
| 1778020515 | 12.22° C | 50% | 1009 hPa | 0 mm | - | 81 W/m² | - |
| 1778020211 | 12.22° C | 53% | 1009 hPa | 0 mm | - | 83 W/m² | - |
| 1778019907 | 12.22° C | 51% | 1009 hPa | 0 mm | - | 83 W/m² | - |
| 1778019603 | 12.22° C | 52% | 1009.3 hPa | 0 mm | - | 88 W/m² | - |
| 1778019300 | 12.22° C | 51% | 1009.2 hPa | 0 mm | - | 89 W/m² | - |
| 1778018997 | 12.22° C | 51% | 1009.2 hPa | 0 mm | - | 88 W/m² | - |
| 1778018694 | 12.22° C | 50% | 1008.9 hPa | 0 mm | - | 99 W/m² | - |
| 1778018391 | 12.22° C | 51% | 1008.8 hPa | 0 mm | - | 113 W/m² | - |
| 1778018090 | 12.78° C | 51% | 1008.9 hPa | 0 mm | - | 103 W/m² | - |
| 1778017787 | 12.22° C | 54% | 1008.8 hPa | 0 mm | - | 111 W/m² | - |
| 1778017485 | 12.22° C | 53% | 1008.9 hPa | 0 mm | - | 90 W/m² | - |
| 1778017182 | 12.22° C | 54% | 1008.8 hPa | 0 mm | - | 92 W/m² | - |
| 1778016880 | 12.22° C | 53% | 1009.2 hPa | 0 mm | - | 79 W/m² | - |
| 1778016576 | 12.22° C | 51% | 1009.2 hPa | 0 mm | - | 80 W/m² | - |
| 1778016273 | 12.22° C | 52% | 1008.9 hPa | 0 mm | - | 75 W/m² | - |
| 1778015969 | 12.78° C | 56% | 1009 hPa | 0 mm | - | 77 W/m² | - |
| 1778015667 | 12.78° C | 58% | 1008.8 hPa | 0 mm | - | 85 W/m² | - |
| 1778015363 | 12.78° C | 60% | 1008.8 hPa | 0 mm | - | 100 W/m² | - |
| 1778015063 | 12.78° C | 59% | 1008.8 hPa | 0 mm | - | 112 W/m² | - |
| 1778014756 | 12.78° C | 60% | 1009 hPa | 0 mm | - | 98 W/m² | - |
| 1778014455 | 12.78° C | 60% | 1009.3 hPa | 0 mm | - | 121 W/m² | - |
| 1778014152 | 12.78° C | 61% | 1009 hPa | 0 mm | - | 109 W/m² | - |
| 1778013849 | 12.78° C | 61% | 1009.2 hPa | 0 mm | - | 92 W/m² | - |
* Rain latest hour (hover to see other rain measurements)
** Current wind speed in m/s (hover to see current wind gust speed)